Location: Ward Pound Ridge Reservation
(41.2500°N, 73.6000°W)
Time: 17:32:48
(UTC-04:00)

ISS - Pass Details

Date: 15 October 2017
Orbit: 401 x 408 km, 51.6° (Epoch: 22 October)

Event Time Altitude Azimuth Distance (km) Brightness Sun altitude
Rises 20:11:12 0° 287° (WNW) 2,323 1.5 -22.9°
Reaches altitude 10° 20:14:22 10° 253° (WSW) 1,460 -0.2 -23.5°
Maximum altitude 20:15:37 12° 231° (SW) 1,359 -0.7 -23.7°
Drops below altitude 10° 20:16:51 10° 208° (SSW) 1,457 -0.8 -24.0°
Enters shadow 20:16:57 10° 207° (SSW) 1,471 -0.8 -24.0°
